Location: Cutler
(25.6150°N, 80.3110°W)
Time: 22:47:22
(UTC-04:00)

Cosmos 2360 Rocket - Visible Passes

Search period start: 20 April 2014 00:00
Search period end: 30 April 2014 00:00
Orbit: 835 x 845 km, 71.0° (Epoch: 20 April)

Date Brightness Start Highest point End Pass type
(mag) Time Alt. Az. Time Alt. Az. Time Alt. Az.
24 Apr 5.0 06:21:12 10° SE 06:24:26 16° E 06:27:40 10° ENE visible
25 Apr 5.0 06:06:00 10° SE 06:08:54 14° E 06:11:49 10° ENE visible
26 Apr 5.0 05:50:52 10° SE 05:53:22 13° E 05:55:53 10° ENE visible
27 Apr 5.1 05:35:49 10° ESE 05:37:50 12° E 05:39:52 10° ENE visible
28 Apr 5.2 05:20:59 10° ESE 05:22:19 11° E 05:23:38 10° E visible
